Theta_e
281 277 274 275 276 277 275 273 273 276 282 280 279 279 281 285 286 287 289 291 294 297 302 305 316 326 325 325 322 326 326 325 325 324 323 323 323 324 326 327 326 324 323 322
276 274 278 281 280 277 276 274 272 277 281 280 278 277 281 283 284 287 288 290 294 297 299 301 303 321 325 325 321 324 326 326 325 326 326 325 325 326 326 327 327 324 323 322
273 277 281 280 278 278 276 274 275 275 279 280 276 274 276 281 283 286 289 292 293 296 298 301 300 305 323 324 324 321 325 326 326 327 327 324 325 325 323 324 325 325 323 323
275 279 279 278 277 278 275 278 278 277 274 269 276 268 273 277 279 283 286 290 291 295 298 298 303 302 308 323 327 326 323 325 325 327 326 324 323 321 324 324 324 324 323 323
275 277 277 277 278 280 277 281 279 277 274 273 271 267 271 277 278 280 285 290 292 293 294 296 300 305 309 314 318 326 325 323 325 325 326 325 324 325 324 323 322 323 323 323
277 280 279 278 281 281 281 278 277 274 273 262 270 269 271 274 277 280 283 288 289 290 293 295 298 300 303 307 309 311 319 321 324 324 324 323 323 323 322 320 321 322 322 323
274 276 277 281 277 278 277 271 263 260 259 262 271 271 272 278 281 281 282 287 287 287 289 293 295 296 298 301 304 307 310 315 323 323 323 323 323 323 321 320 321 321 322 322
264 266 275 278 276 273 275 272 264 258 263 266 274 269 272 279 281 284 284 284 284 285 287 287 293 295 296 298 301 302 305 307 313 323 322 323 323 322 322 321 321 321 322 323
263 267 277 278 277 277 274 265 274 268 271 267 269 272 278 280 280 281 281 281 281 284 286 286 288 292 294 296 298 300 301 304 308 311 322 322 322 322 321 321 322 323 323 320
270 263 275 278 279 278 276 278 266 266 256 257 267 269 270 275 276 280 280 280 280 282 284 285 286 288 289 294 295 298 299 300 304 307 310 322 322 322 323 322 322 322 317 314
267 270 270 273 269 272 273 270 269 267 267 263 263 267 276 275 276 277 277 279 281 282 284 285 285 287 288 290 293 295 295 296 299 302 305 309 321 321 322 320 319 316 312 310
274 269 268 269 274 277 276 273 272 262 263 269 268 266 278 278 278 277 278 281 282 282 282 283 284 285 286 287 290 293 293 293 295 299 302 306 309 317 319 312 310 309 306 307
274 265 260 267 269 272 267 275 276 273 272 266 264 266 278 277 278 280 279 280 281 282 282 283 283 284 285 286 288 291 291 291 293 295 299 303 306 307 308 309 307 305 304 303
281 269 266 264 268 263 267 269 273 271 268 267 268 270 275 277 277 279 280 281 281 282 282 282 282 283 284 285 288 290 289 290 291 293 295 298 300 303 304 304 303 303 304 304
276 265 268 272 274 273 272 271 272 271 272 268 271 271 274 277 278 279 281 281 281 281 281 281 281 282 283 284 288 288 288 288 289 291 291 291 293 296 297 297 298 299 299 295
275 265 265 269 273 272 269 272 272 273 273 272 272 272 278 280 280 278 279 280 280 280 281 282 282 283 284 286 288 287 286 286 287 288 288 288 288 289 290 292 289 288 288 289
271 266 262 262 269 269 262 266 268 271 273 273 269 275 279 278 279 280 280 280 280 281 282 282 283 284 284 286 286 284 284 285 286 286 286 285 286 285 285 286 286 285 285 286
272 267 267 263 263 261 273 273 272 272 275 275 275 277 278 279 280 282 282 282 282 283 283 284 285 283 283 284 282 282 283 284 285 284 284 284 284 284 284 284 284 284 285 284
276 272 261 258 253 267 271 273 270 268 272 276 275 276 278 280 280 280 283 285 284 284 286 288 287 284 283 281 281 281 283 284 284 283 283 284 284 284 284 283 283 283 283 283
275 277 268 255 255 258 271 275 276 274 267 276 277 278 277 278 274 277 282 284 283 286 286 281 280 280 280 279 281 283 283 283 282 283 283 284 284 283 282 282 282 283 283 282
270 270 268 262 261 265 274 276 276 266 273 278 279 278 277 275 279 281 282 282 286 283 279 280 279 280 280 281 283 283 282 281 282 283 283 283 283 282 282 282 282 282 281 281
265 263 262 262 260 261 276 275 273 278 278 278 276 278 279 279 279 280 280 284 284 280 280 281 281 280 281 284 284 281 280 281 281 281 281 281 281 281 281 280 280 280 280 279
266 272 266 269 269 277 277 277 279 279 278 279 279 280 279 278 278 279 278 285 282 280 280 282 280 282 283 284 283 280 279 280 280 280 279 279 280 280 280 279 279 279 279 278
273 275 270 270 277 278 279 280 280 281 280 281 280 279 278 277 279 279 280 284 282 281 279 282 282 281 280 281 281 280 280 281 280 278 278 279 279 279 279 280 280 279 278 278
275 273 270 271 277 278 280 281 282 282 281 279 279 279 279 278 279 280 281 282 282 282 281 279 280 281 280 280 280 280 280 281 279 278 277 277 278 278 277 277 278 278 277 279
277 275 273 275 281 279 281 280 281 280 280 280 279 279 279 279 279 280 280 280 279 281 280 279 278 281 280 279 278 277 278 278 277 275 275 275 275 275 275 275 275 281 281 282
Wind_Speed
7 9 7 5 3 3 4 4 9 7 9 14 18 23 22 19 19 19 18 11 9 11 12 7 7 13 13 10 12 17 16 17 13 11 11 10 11 10 11 10 12 11 11 10
6 5 4 4 3 3 3 5 8 8 13 14 17 23 18 11 10 18 22 18 11 8 8 11 8 6 10 13 15 17 19 17 16 13 13 11 10 10 10 8 9 11 10 11
3 2 3 3 4 9 5 3 6 11 12 12 8 11 8 18 13 11 15 11 13 11 11 14 7 7 7 12 13 15 19 20 18 19 10 4 6 7 8 8 8 9 12 12
3 4 5 5 4 3 6 3 7 12 15 7 5 11 9 13 11 4 14 14 9 12 14 8 14 8 6 10 12 14 16 17 17 17 13 17 15 13 13 10 7 7 10 12
4 7 8 3 2 1 8 7 9 15 12 5 4 2 8 11 16 5 10 11 12 11 9 11 14 12 4 7 8 10 12 16 15 15 17 14 14 12 8 9 9 10 8 11
5 4 2 3 4 3 8 8 14 2 1 4 5 3 8 6 6 13 8 8 12 13 14 14 12 14 14 9 9 9 11 10 13 15 17 16 18 13 9 8 9 7 6 8
9 3 4 1 5 4 8 5 6 10 7 7 4 11 10 14 18 7 12 7 8 9 13 12 14 14 13 12 13 12 11 12 10 14 16 17 18 16 14 12 10 10 8 7
4 10 1 2 3 4 4 3 4 6 5 16 18 8 7 8 7 6 5 7 5 7 10 13 10 8 9 11 10 9 11 10 14 12 16 15 14 9 10 9 9 8 8 9
5 8 5 2 1 2 3 2 4 4 11 6 5 6 13 10 10 4 5 5 8 12 13 13 15 9 7 6 7 8 8 8 11 11 8 12 10 11 11 11 9 8 9 6
2 8 2 6 5 2 4 1 3 3 5 7 11 13 13 14 13 12 11 10 8 10 13 16 15 14 12 8 6 5 7 10 10 7 8 11 13 12 12 10 10 9 6 8
6 5 8 4 4 5 2 3 2 2 3 3 8 13 6 8 6 10 9 12 16 18 17 16 14 14 15 10 7 6 4 6 8 8 8 8 11 15 14 11 9 8 7 9
7 4 6 11 4 3 5 5 4 5 6 3 6 20 5 14 9 6 15 20 20 18 15 15 16 15 15 13 8 7 5 6 6 8 8 7 6 7 11 8 8 8 8 4
6 2 6 10 7 5 3 3 5 2 2 10 6 14 4 2 15 19 20 20 16 17 19 16 15 13 13 13 7 6 5 6 7 7 8 5 4 3 3 7 10 13 13 12
7 4 9 10 11 3 13 11 11 6 7 7 19 32 35 27 21 21 19 19 18 16 17 15 13 12 12 11 7 5 5 4 6 6 7 5 4 3 2 1 5 10 13 16
6 6 7 16 20 20 26 26 19 19 22 15 28 18 30 25 24 22 21 20 19 16 14 13 11 10 9 9 7 5 3 3 4 4 4 5 5 5 8 8 6 3 7 8
1 5 2 16 11 6 19 21 20 21 20 26 30 35 31 27 21 15 16 15 15 15 16 14 7 8 12 8 5 4 5 4 3 4 3 3 5 7 9 10 12 11 8 10
4 3 5 10 8 12 9 9 7 4 9 8 10 20 18 19 21 19 16 13 14 13 14 13 13 11 11 9 4 4 2 2 3 3 4 4 6 8 9 11 14 13 9 12
4 4 2 8 8 4 6 5 8 10 12 13 16 20 21 21 20 20 14 14 10 17 18 19 13 9 8 4 2 3 3 2 2 3 4 4 7 10 10 13 14 14 12 13
6 4 2 3 2 12 9 3 3 4 12 10 13 14 13 14 15 17 9 3 11 16 19 15 10 10 8 4 4 4 3 3 4 4 4 4 8 10 11 13 14 14 15 13
5 7 6 2 2 8 7 4 5 3 8 6 8 9 10 13 13 16 15 19 17 14 10 8 7 4 2 3 5 4 3 4 4 6 5 6 8 11 12 13 12 14 14 13
5 4 14 6 6 14 14 10 5 6 8 3 5 9 7 5 9 21 20 16 11 6 7 6 4 3 2 2 4 4 4 4 5 8 8 9 12 12 12 12 11 13 12 11
10 9 6 4 4 15 11 5 8 6 3 4 5 9 12 11 14 15 14 13 9 6 5 5 5 5 4 2 4 6 6 4 9 9 10 11 11 8 9 11 9 11 12 11
5 9 9 14 13 5 10 6 4 1 9 16 13 16 9 11 10 14 9 9 5 4 4 3 3 4 5 5 6 9 5 8 9 11 11 10 10 9 8 9 9 9 9 8
7 7 6 2 19 21 20 20 18 18 15 15 12 12 7 9 10 12 6 6 3 4 3 2 4 6 5 6 8 8 8 8 9 10 7 7 9 8 6 6 6 6 6 6
7 9 7 9 24 18 26 22 21 16 7 8 8 7 9 7 9 7 6 5 2 3 2 3 3 5 5 6 7 6 6 7 7 6 4 5 5 7 6 3 5 5 2 4
10 10 11 13 16 9 19 4 5 6 7 8 7 7 7 5 7 5 6 3 1 1 1 2 2 6 6 6 6 4 4 5 6 4 2 2 3 4 4 4 5 7 9 10
Wind_Direction
2 53 35 355 65 219 234 275 286 281 293 329 308 294 304 299 292 290 287 266 256 270 282 275 268 240 228 202 190 196 199 198 180 188 192 194 201 198 207 201 196 196 200 188
28 50 332 304 4 54 42 293 297 289 315 320 297 295 292 290 298 304 293 280 253 260 264 263 252 231 224 227 204 204 199 197 195 196 197 200 196 208 209 186 189 194 194 197
65 292 314 32 354 6 347 274 295 293 308 284 305 295 302 297 301 306 309 311 322 307 261 272 335 297 239 221 223 213 211 204 201 204 191 172 183 206 206 194 193 194 193 199
270 319 348 346 26 39 320 243 294 300 323 300 61 298 298 292 296 350 346 345 334 351 338 310 264 274 272 249 237 228 220 212 206 200 194 197 202 204 216 206 190 197 195 200
273 334 347 330 285 292 259 307 278 295 290 321 297 305 266 298 290 349 3 11 3 356 345 2 0 317 328 13 337 284 247 222 212 198 201 203 213 222 210 206 190 190 197 204
249 291 246 264 295 264 295 318 303 329 350 356 271 57 271 281 263 332 333 341 354 353 348 1 6 8 355 17 2 354 335 254 214 202 204 203 213 213 206 201 210 195 199 204
328 275 290 351 328 322 16 24 347 354 4 243 342 320 263 278 278 270 283 318 339 351 8 353 358 358 359 6 3 340 339 332 227 209 205 208 208 206 205 199 206 205 202 216
37 334 221 41 144 276 319 101 137 300 309 299 295 242 260 279 280 261 11 317 324 353 355 355 340 338 343 341 340 355 321 327 324 217 209 215 215 209 213 202 205 212 206 203
14 280 316 289 296 101 334 27 204 248 264 275 259 300 296 293 327 313 344 310 350 347 343 337 338 326 313 317 312 323 315 302 298 328 231 211 209 210 213 211 202 201 210 189
229 305 295 308 353 261 198 225 10 5 335 307 285 295 259 305 303 295 329 330 319 325 327 325 322 316 318 299 274 262 290 316 310 307 308 225 205 204 218 213 202 202 174 158
132 136 285 18 192 171 13 328 41 120 158 258 307 288 226 270 278 295 310 313 315 313 311 310 307 309 309 300 288 286 294 294 319 312 312 309 221 205 191 200 196 178 164 159
191 160 280 251 222 214 179 222 165 124 284 241 282 268 261 262 281 288 307 304 302 299 296 297 299 303 299 298 288 296 314 314 311 306 303 313 314 222 192 175 157 145 126 121
177 277 325 338 3 355 136 190 217 118 232 238 242 262 221 234 306 302 296 296 296 294 296 294 295 294 290 292 281 291 312 312 312 322 313 316 287 347 277 196 163 143 140 131
152 183 181 215 244 169 282 250 251 246 251 271 237 274 290 296 297 302 299 293 293 296 289 288 286 286 286 285 278 278 307 319 316 328 326 336 10 120 115 342 149 151 153 156
153 220 230 248 265 270 267 272 262 239 239 248 270 271 278 286 291 293 293 290 288 285 284 281 275 282 286 295 272 277 297 317 316 329 350 349 356 53 87 75 41 7 118 114
178 266 70 294 264 288 285 262 256 245 247 246 258 272 272 280 282 284 286 280 280 289 290 285 266 284 299 299 259 265 306 330 343 352 30 33 53 63 80 95 83 60 66 86
172 154 50 263 334 318 289 240 198 210 199 197 224 257 291 296 295 296 295 287 278 283 297 294 294 291 286 279 231 201 238 309 17 37 48 59 79 76 79 86 91 94 62 78
152 118 134 279 343 339 249 255 208 227 250 235 261 270 274 282 290 300 281 281 310 308 304 295 287 288 280 266 159 137 146 151 95 81 88 93 97 97 94 92 92 89 91 81
191 149 308 262 219 298 297 218 151 145 289 219 232 259 267 289 302 299 283 245 305 290 290 293 283 285 273 202 130 128 120 121 111 105 92 120 113 110 109 103 102 97 91 85
175 205 160 61 203 257 238 157 138 125 286 229 213 256 309 330 324 315 328 313 308 306 316 308 299 301 167 127 130 114 121 103 115 102 97 90 103 109 103 103 102 102 96 93
157 193 212 208 255 276 255 229 76 77 253 226 246 278 296 289 277 300 311 311 316 327 328 321 357 35 85 117 98 106 106 97 110 96 98 103 97 94 99 101 102 102 100 102
165 166 193 154 190 269 168 92 179 219 231 247 252 281 295 289 296 306 306 314 328 343 321 351 360 24 36 64 99 88 76 88 84 84 84 84 90 91 94 102 98 99 104 103
248 196 185 192 214 236 205 243 243 313 297 293 289 289 287 291 303 309 297 322 337 336 325 18 32 27 34 51 91 85 47 58 76 84 80 76 74 85 96 109 101 106 112 115
245 172 221 91 247 251 256 247 254 262 254 273 274 275 278 278 307 303 300 324 348 328 325 29 75 60 52 53 82 98 88 77 74 78 92 107 103 96 97 95 94 112 120 121
185 148 190 263 272 280 269 261 261 265 255 265 267 256 271 290 295 292 309 318 7 329 1 51 86 90 82 82 78 74 103 113 101 93 77 88 98 109 91 69 108 117 78 158
191 204 204 228 228 223 268 244 167 213 236 244 256 282 282 245 280 297 304 289 256 244 351 114 169 138 135 118 121 135 138 121 124 106 88 97 106 100 109 123 109 158 164 181